Location: Kerentrech
(47.7567°N, 3.3595°W)
Time: 09:38:31
(UTC+00:00)

Okean O Rocket - Pass Details

Date: 17 February 2020
Orbit: 622 x 645 km, 98.2° (Epoch: 10 April)

Event Time Altitude Azimuth Distance (km) Brightness Sun altitude
Rises 04:56:37 0° 28° (NNE) 2,937 5.5 -24.2°
Reaches altitude 10° 04:59:28 10° 48° (NE) 2,019 4.9 -23.7°
Maximum altitude 05:02:28 18° 91° (E) 1,553 4.5 -23.2°
Drops below altitude 10° 05:05:27 10° 135° (SE) 1,999 4.6 -22.7°
Sets 05:08:15 0° 154° (SSE) 2,896 5.3 -22.3°
